[Iaude] MPEC X309: 2023 XO14 [a=1.06,e=0.07,i=6.4,H=29.1]

mpec at marsden.cfa.harvard.edu mpec at marsden.cfa.harvard.edu
Fri Dec 15 15:56:05 EST 2023


M.P.E.C. 2023-X309                            Issued 2023 December 15, 20:54 UT

     The Minor Planet Electronic Circulars contain information on unusual
         minor planets, routine data on comets and natural satellites,
         and occasional editorial announcements.  They are published
    on behalf of Division F of the International Astronomical Union by the
          Minor Planet Center, Smithsonian Astrophysical Observatory,
                          Cambridge, MA 02138, U.S.A.
			  
             Prepared using the Tamkin Foundation Computer Network

                              MPC at CFA.HARVARD.EDU
            URL https://www.minorplanetcenter.net/    ISSN 1523-6714

                                   2023 XO14                                    


Observations:
     K23X14O*1C2023 12 13.35211307 54 19.001+33 59 20.22         19.68GVEX309G96
     K23X14O 1C2023 12 13.35732907 54 23.566+34 04 22.33         19.78GVEX309G96
     K23X14O 1C2023 12 13.36256007 54 28.159+34 09 27.07               VEX309G96
     K23X14O 1C2023 12 13.36778407 54 32.731+34 14 31.42         19.87GVEX309G96
     K23X14O  C2023 12 13.39577207 56 04.061+34 41 42.17         19.88GVEX309F52
     K23X14O  C2023 12 13.40735607 56 15.865+34 53 16.37         19.91GVEX309F52
     K23X14O  C2023 12 13.41894707 56 27.323+35 04 46.06         19.50GVEX309F52
     K23X14O  C2023 12 13.43137707 56 39.270+35 17 02.57         19.19GVEX309F52
     K23X14O mC2023 12 13.44014407 55 35.548+35 23 19.10         19.57GVEX309I52
     K23X14O mC2023 12 13.44032507 55 35.728+35 23 29.58         19.56GVEX309I52
     K23X14O mC2023 12 13.44050707 55 35.886+35 23 39.73               VEX309I52
     K23X14O mC2023 12 13.44069407 55 36.019+35 23 49.70               VEX309I52
     K23X14O KC2023 12 14.06703608 12 01.027+44 26 40.27         19.9 GVEX309J95
     K23X14O KC2023 12 14.07050808 12 05.174+44 29 31.96         19.4 GVEX309J95
     K23X14O KC2023 12 14.07441108 12 09.924+44 32 44.70         19.8 GVEX309J95
     K23X14O KC2023 12 14.07788108 12 14.086+44 35 36.24         19.0 GVEX309J95
     K23X14O KC2023 12 14.28033608 18 46.926+47 16 37.99         19.96GVEX309I52
     K23X14O KC2023 12 14.28081208 18 47.588+47 17 02.00         19.70GVEX309I52
     K23X14O KC2023 12 14.28128808 18 48.229+47 17 25.73         20.25GVEX309I52
     K23X14O KC2023 12 14.28176708 18 48.874+47 17 49.42         20.03GVEX309I52
     K23X14O pC2023 12 14.93422908 38 22.73 +54 42 13.0          20.0 GVEX309L01
     K23X14O pC2023 12 14.93640508 38 26.28 +54 43 39.3          20.0 GVEX309L01
     K23X14O pC2023 12 14.93848508 38 29.59 +54 45 02.7          19.8 GVEX309L01
     K23X14O KC2023 12 15.34340508 51 16.21 +58 41 58.4          20.3 GVEX309H21
     K23X14O KC2023 12 15.34726208 51 21.95 +58 44 04.1          20.6 GVEX309H21
     K23X14O KC2023 12 15.35112108 51 27.75 +58 46 09.5          20.2 GVEX309H21
     K23X14O KC2023 12 15.35497908 51 33.53 +58 48 14.4          20.2 GVEX309H21

Observer details:
F52 Pan-STARRS 2, Haleakala.  Observers J. Herman, T. Lowe, P. Minguez, A.
    Schultz, I. Smith.  Measurers K. Chambers, T. de Boer, J. Fairlamb, H.
    Gao, M. Huber, C.-C. Lin, E. Magnier, Y. Ramanjooloo, R. Wainscoat, R.
    Weryk.  1.8-m Ritchey-Chretien + CCD.
G96 Mt. Lemmon Survey.  Observer J. K. Hogan.  Measurers E. C. Beshore, D.
    Fay, J. B. Fazekas, D. C. Fuls, A. R. Gibbs, A. D. Grauer, H. Groeller, J.
    K. Hogan, R. A. Kowalski, S. M. Larson, G. J. Leonard, D. Rankin, R. L.
    Seaman, F. C. Shelly, K. W. Wierzchos.  1.5-m reflector + 10K CCD.
H21 Astronomical Research Observatory, Westfield.  Observer R. Holmes.
    Measurers T. Linder, R. Holmes, L. Horn.  0.76-m f/3.0 astrograph + CCD.
I52 Steward Observatory, Mt. Lemmon Station.  Observer K. W. Wierzchos.
    Measurers E. C. Beshore, D. Fay, J. B. Fazekas, D. C. Fuls, A. R. Gibbs,
    A. D. Grauer, H. Groeller, J. K. Hogan, R. A. Kowalski, S. M. Larson, G.
    J. Leonard, D. Rankin, R. L. Seaman, F. C. Shelly, K. W. Wierzchos.  1.0-m
    prime focus + CCD.
J95 Great Shefford.  Observer P. Birtwhistle.  0.41-m f/6.3 Schmidt-Cassegrain
    + CCD.
L01 Visnjan Observatory, Tican.  Observers K. Korlevic, I. Lyon.  Measurer K.
    Korlevic.  1.0-m f/2.9 reflector + CCD.

Orbital elements:
2023 XO14                                                Earth MOID = 0.0050 AU
Epoch 2023 Sept. 13.0 TT = JDT 2460200.5                Bell                    
M 277.77064              (2000.0)            P               Q                  
n   0.90314965     Peri.    0.05246     +0.16291725     -0.98049931             
a   1.0599765      Node    80.57161     +0.90518368     +0.10421655             
e   0.0655862      Incl.    6.39659     +0.39255633     +0.16661335             
P   1.09           H   29.16          G   0.15           U   5                  
Residuals in seconds of arc
231213 G96  0.2+  0.3+    231213 I52  0.2+  0.2+    231214 I52  0.1+  0.4+
231213 G96  0.5-  3.3-    231213 I52  0.2+  0.2+    231214 I52  0.2+  0.6+
231213 G96  0.8-  4.4-    231213 I52  0.2-  0.2-    231214 L01  0.4-  0.3+
231213 G96  0.9-  4.5-    231214 J95  0.1-  0.5+    231214 L01  0.5-  0.4-
231213 F52  0.4+  1.5+    231214 J95  0.5-  0.0     231214 L01  1.3-  0.1-
231213 F52  0.3+  1.4+    231214 J95  0.0   0.3-    231215 H21  0.3+  0.2+
231213 F52  0.0   0.1-    231214 J95  0.1-  0.0     231215 H21  0.1-  0.1-
231213 F52  0.1-  0.6-    231214 I52  0.3-  0.6-    231215 H21  0.0   0.1-
231213 I52  0.1-  0.2-    231214 I52  0.1+  0.1+    231215 H21  0.0   0.1-

Ephemeris:
2023 XO14                a,e,i = 1.06, 0.07, 6                   q = 0.9905
Date    TT    R. A. (2000) Decl.     Delta      r    Elong.  Phase     V
2023 11 15    05 15 33.6 -60 32 02   0.05378 0.9980    97.7    79.2    25.6
...
2023 11 30    05 48 43.4 -54 09 49   0.02588 0.9921   102.0    76.5    23.9
...
2023 12 08    06 35 18.5 -33 58 02   0.01119 0.9906   118.7    60.7    21.6
...
2023 12 14    08 09 50.8 +43 34 17   0.0073520.9901   140.1    39.6    20.0
2023 12 15    08 39 17.4 +55 23 07   0.0084360.9901   132.3    47.3    20.6
2023 12 16    09 15 10.2 +63 42 52   0.0098250.9900   125.6    53.9    21.1
...
2023 12 22    13 33 52.2 +76 15 33   0.02045 0.9900   107.3    71.5    23.2
...
2023 12 30    15 33 06.5 +73 41 49   0.03566 0.9910   101.3    76.7    24.6
...
2024 01 14    16 16 43.3 +71 37 59   0.06273 0.9956    99.3    77.1    25.8

M. P. C. Staff               (C) Copyright 2023 MPC           M.P.E.C. 2023-X309





More information about the Iaude mailing list